{"data":{"norad_id":52843,"epoch":"2026-09-19T22:12:27.808704Z","epoch_age_seconds":116050,"freshness":"FRESH","line1":"1 52843U 22062P   26262.92532186 -.00000608  00000+0 -78184-5 0  9996","line2":"2 52843  53.1592 231.5779 0001021  79.6042 280.5074 15.31702630235256","mean_motion":15.3170263,"eccentricity":0.0001021,"inclination_deg":53.1592,"raan_deg":231.5779,"arg_perigee_deg":79.6042,"mean_anomaly_deg":280.5074,"bstar":-7.8184e-6,"rev_number":23525,"period_min":94.013026536358,"perigee_km":470.03288580296,"apogee_km":471.43142488448,"semimajor_km":6848.8691553437,"source":"CELESTRAK","updated_at":"2026-09-20T09:00:40.113418Z"}}